Home   Weather   Germany   Georgsmarienhütte   Past weeks
Flag for Germany

Past Weather in Georgsmarienhütte, Lower Saxony, Germany — Yesterday and Last 2 Weeks

Currently: 30 °F. Passing clouds. (Weather station: Muenster / Osnabrueck, Germany). See more current weather

Past Weather in Georgsmarienhütte — Graph

°F

Georgsmarienhütte Temperature Yesterday

Maximum temperature yesterday: 41 °F (at 3:20 pm)
Minimum temperature yesterday: 36 °F (at 6:50 am)
Average temperature yesterday: 38 °F

High & Low Weather Summary for the Past Weeks

 TemperatureHumidityPressure
High66 °F (Feb 23, 3:20 pm)100% (Feb 25, 3:50 am)30.74 "Hg (Feb 25, 3:50 am)
Low28 °F (Mar 2, 4:50 am)37% (Feb 22, 2:50 pm)29.71 "Hg (Feb 18, 4:50 pm)
Average47 °F77%30.28 "Hg
* Reported Feb 18 4:20 am — Mar 5 4:20 am, Georgsmarienhütte. Weather by CustomWeather, © 2021

Note: Actual official high and low records may vary slightly from our data, if they occured in-between our weather recording intervals... More about our weather records

Georgsmarienhütte Weather History for the Previous 24 Hours

Scroll right to see more
 ConditionsComfort  
Time TempWeatherWind HumidityBarometerVisibility
4:20 am
Fri, Mar 5
30 °FPassing clouds.10 mph80%30.24 "HgN/A
3:50 am32 °FPassing clouds.10 mph75%30.24 "HgN/A
3:20 am32 °FPassing clouds.8 mph80%30.21 "HgN/A
2:50 am34 °FPassing clouds.9 mph75%30.21 "HgN/A
2:20 am36 °FPassing clouds.12 mph75%30.21 "HgN/A
1:50 am37 °FPassing clouds.12 mph81%30.18 "HgN/A
1:20 am37 °FPassing clouds.9 mph81%30.18 "HgN/A
12:50 am37 °FPassing clouds.10 mph81%30.18 "HgN/A
12:20 am37 °FPassing clouds.13 mph81%30.15 "HgN/A
11:50 pm
Thu, Mar 4
37 °FPassing clouds.14 mph87%30.15 "HgN/A
11:20 pm37 °FPassing clouds.7 mph93%30.15 "HgN/A
10:50 pm37 °FPassing clouds.7 mph87%30.15 "HgN/A
10:20 pm39 °FPassing clouds.7 mph75%30.12 "HgN/A
9:50 pm39 °FPassing clouds.7 mph75%30.12 "HgN/A
9:20 pm39 °FPassing clouds.6 mph75%30.12 "HgN/A
8:50 pm39 °FPassing clouds.6 mph75%30.12 "HgN/A
8:20 pm39 °FPassing clouds.9 mph75%30.09 "HgN/A
7:50 pm39 °FPassing clouds.10 mph75%30.09 "HgN/A
7:20 pm39 °FPassing clouds.7 mph81%30.09 "HgN/A
6:50 pm39 °FPartly cloudy.6 mph87%30.09 "HgN/A
6:20 pm39 °FPassing clouds.5 mph87%30.09 "HgN/A
5:50 pm41 °FBroken clouds.6 mph81%30.09 "HgN/A
5:20 pm41 °FPartly sunny.5 mph81%30.09 "HgN/A
4:50 pm39 °FPartly sunny.6 mph87%30.09 "HgN/A
4:20 pm41 °FPartly sunny.6 mph81%30.09 "HgN/A
3:50 pm41 °FPartly sunny.6 mph81%30.09 "HgN/A
3:20 pm41 °FPartly sunny.6 mph81%30.09 "HgN/A
2:50 pm39 °FBroken clouds.3 mph87%30.09 "HgN/A
2:20 pm39 °FBroken clouds.5 mph87%30.09 "HgN/A
1:50 pm37 °FBroken clouds.5 mph93%30.09 "HgN/A
1:20 pm37 °FPartly sunny.9 mph93%30.12 "Hg6 mi
12:50 pm37 °FPartly sunny.8 mph93%30.12 "Hg6 mi
12:20 pm37 °FPartly sunny.7 mph93%30.12 "Hg6 mi
11:50 am37 °FPartly sunny.7 mph87%30.12 "Hg6 mi
11:20 am37 °FPartly sunny.6 mph93%30.12 "Hg4 mi
10:50 am36 °FDrizzle. Fog.6 mph100%30.12 "Hg3 mi
10:20 am36 °FFog.5 mph100%30.15 "Hg3 mi
9:50 am36 °FFog.8 mph100%30.15 "Hg2 mi
9:20 am36 °FDrizzle. Fog.6 mph100%30.12 "Hg2 mi
8:50 am36 °FLight rain. Fog.6 mph100%30.15 "Hg2 mi
8:20 am36 °FFog.5 mph100%30.12 "Hg2 mi
7:50 am36 °FFog.6 mph100%30.12 "Hg1 mi
7:20 am36 °FChilly.3 mph100%30.15 "Hg1 mi
6:50 am36 °FFog.5 mph100%30.15 "Hg1 mi
6:20 am37 °FFog.5 mph93%30.12 "Hg1 mi
5:50 am37 °FFog.2 mph93%30.15 "Hg1 mi
5:20 am37 °FLight rain. Fog.3 mph93%30.15 "Hg2 mi
Weather by CustomWeather, © 2021

See weather overview